User: anonymous   Login
Location: Ostrava
(49.8330°N, 18.2830°E)
Time: 03:42:19
(UTC+02:00)
Language:

NOAA 19 - Orbit

View from above orbital plane
View from above orbital plane
View from above satellite
View from above satellite

Ground track
Ground track

The orbit data is extracted from the following two-line orbital elements,

1 33591U 09005A   17290.55688538 +.00000112 +00000-0 +85942-4 0  9998
2 33591 099.1086 259.2113 0013074 290.3916 069.5851 14.12220534447669
Epoch (UTC): 17 October 2017 13:21:54
Eccentricity: 0.0013074
inclination: 99.1086°
perigee height: 842 km
apogee height: 861 km
right ascension of ascending node: 259.2113°
argument of perigee: 290.3916°
revolutions per day: 14.12220534
mean anomaly at epoch: 69.5851°
orbit number at epoch: 44766

The dashed part of the orbit path shows where the satellite is in the earth's shadow,  

DLR